Location: Copeville
(33.0796°N, 96.4155°W)
Time: 00:55:27
(UTC+00:00)

Nadezhda 4 Rocket - Pass Details

Date: 06 July 2022
Orbit: 949 x 992 km, 82.9° (Epoch: 07 August)

Event Time Altitude Azimuth Distance (km) Brightness Sun altitude
Rises 10:17:49 0° 146° (SE) 3,646 7.0 -12.3°
Reaches altitude 10° 10:21:00 10° 130° (SE) 2,696 6.5 -11.7°
Maximum altitude 10:25:18 20° 85° (E) 2,053 6.5 -11.0°
Drops below altitude 10° 10:29:35 10° 40° (NE) 2,688 7.8 -10.3°
Sets 10:32:43 0° 25° (NNE) 3,633 8.1 -9.8°
